RH
32 28 26 26 22 23 36 42 53 54 59 64 67 71 71 72 70 68 69 74 74 76 78 80 79 78 75 81 81 86 93 92 90 87 80 75 71 82 84 96 91 85 88 74
33 30 29 28 27 27 43 51 54 60 61 68 72 73 71 74 74 69 65 66 70 72 73 78 74 77 76 73 75 75 80 91 97 98 96 90 87 84 89 83 88 88 93 70
35 33 33 30 27 28 41 56 58 62 67 76 72 78 75 82 74 77 70 66 63 67 72 70 76 74 72 68 65 64 68 74 83 89 82 82 83 81 87 87 94 82 73 66
41 40 36 34 27 30 35 51 62 66 74 76 80 77 79 82 82 75 72 68 66 61 65 68 72 68 72 68 64 59 62 68 70 72 72 73 78 79 78 88 81 80 65 62
46 42 42 38 33 33 39 44 60 60 75 80 88 82 81 84 84 81 77 75 69 65 67 67 71 68 65 70 64 56 59 65 60 60 59 62 66 69 71 72 72 68 66 65
47 48 48 44 38 37 43 43 54 56 66 84 94 88 82 81 85 88 81 79 76 72 70 66 63 63 59 59 64 59 55 56 59 69 54 57 64 60 62 63 62 66 66 60
50 52 55 50 47 44 50 48 50 67 53 73 97 91 87 83 82 86 83 79 76 75 74 70 64 60 61 58 57 57 56 56 56 63 53 69 62 55 58 60 59 60 61 62
45 51 53 56 54 50 55 63 49 61 63 56 88 92 92 90 83 85 83 81 81 80 80 81 74 70 66 67 61 53 53 55 60 67 57 55 53 60 57 63 63 57 57 55
43 45 51 54 56 57 61 68 58 55 70 57 61 80 98 99 95 88 84 83 80 81 82 82 88 92 67 68 59 54 52 52 61 60 63 59 71 55 58 65 69 61 57 58
48 51 49 53 63 63 65 70 66 58 58 65 53 64 83 97 98 96 91 86 84 82 84 87 85 84 68 71 63 58 58 59 63 58 63 52 56 53 61 69 73 65 67 69
45 47 56 62 66 64 66 62 71 66 61 51 66 54 64 81 95 98 98 93 92 90 90 87 83 81 74 70 64 63 62 66 64 59 59 62 55 61 67 66 65 67 70 70
39 45 53 62 67 74 76 62 64 63 66 54 51 61 54 62 79 96 98 97 97 93 92 91 82 83 75 71 77 67 69 64 66 62 63 57 57 61 65 65 64 61 58 66
38 40 55 65 77 73 63 58 58 59 62 54 53 60 64 58 61 84 94 96 98 98 94 87 83 81 76 79 75 70 66 63 64 62 61 59 59 62 64 66 66 64 63 68
40 47 60 66 67 69 52 52 61 66 60 60 50 52 67 63 59 72 86 91 95 93 91 85 79 74 70 72 72 71 70 67 64 63 61 61 62 64 66 67 66 66 68 72
42 52 60 66 70 75 60 58 64 66 68 59 54 51 59 63 45 65 83 83 85 97 91 86 80 75 69 67 69 67 65 63 66 66 64 62 61 64 65 67 68 67 65 68
41 47 56 66 75 75 69 63 68 64 70 64 60 50 48 60 55 55 79 85 85 89 92 89 81 77 75 71 66 58 56 56 55 57 58 59 59 60 61 63 67 69 68 67
36 43 56 65 75 69 70 76 78 72 71 70 64 59 64 71 73 68 80 84 88 89 89 86 80 78 77 73 70 60 58 57 58 57 57 57 58 59 62 63 64 66 69 69
35 38 45 60 70 65 79 82 78 71 71 73 68 65 75 84 85 75 80 90 91 89 89 85 86 77 74 69 63 60 58 58 61 61 62 63 64 63 64 65 65 64 67 68
34 32 37 55 65 75 76 94 86 76 70 69 69 88 96 97 98 76 85 89 94 92 92 89 85 77 73 63 62 61 60 59 60 62 63 65 67 67 67 67 68 66 67 68
31 30 38 57 66 71 71 92 96 79 75 69 78 79 92 93 96 97 88 86 94 92 86 86 84 73 66 66 66 65 65 65 65 67 68 70 73 73 71 69 69 68 68 69
30 33 38 46 54 61 81 96 97 94 94 96 96 96 96 95 99 97 91 96 91 90 85 85 77 69 72 69 71 72 71 72 74 76 75 78 78 77 75 71 70 68 68 70
35 36 37 48 62 75 93 97 98 98 97 98 98 98 98 97 98 99 98 95 95 92 85 85 75 74 74 75 76 79 80 81 82 82 81 80 80 79 78 77 75 74 70 70
38 40 45 55 71 86 98 98 98 98 98 98 97 97 98 98 98 96 99 97 93 88 90 79 74 78 82 86 86 88 90 91 91 89 88 87 87 86 85 82 82 80 77 75
44 46 44 59 76 92 98 98 95 92 97 98 98 98 98 98 98 98 95 95 95 93 89 86 88 95 94 93 94 94 94 96 96 95 95 94 92 91 88 85 83 82 82 82
52 54 52 56 67 76 83 82 79 82 88 97 98 98 98 98 98 98 97 98 94 91 94 97 98 98 97 96 96 96 96 95 93 89 85 85 88 90 90 90 89 88 86 85
56 55 57 53 58 64 68 69 71 76 78 95 98 98 98 98 98 98 98 98 97 98 98 98 98 98 98 98 97 96 92 84 79 75 72 73 70 66 66 68 69 76 87 91
59 61 61 55 55 67 70 69 71 74 78 94 98 98 98 98 98 98 98 99 98 97 96 98 98 98 98 98 98 97 86 81 77 72 70 67 64 63 60 56 56 59 63 75